[[{"header":{"parameterUnit":"m.s-1","parameterCategory":1,"la1":30.2992,"la2":30.254,"lo1":-89.0895,"lo2":-89.0443,"dy":0.0025,"dx":0.0025,"nx":19,"ny":19,"refTime":"2026-03-16T09:00:00:Z","depth":0,"parameterNumber":2,"parameterNumberName":"U-component_of_WINDS"},"data":[0,0,0,0.1254,0.1254,0.1245,0.1245,0.1234,0.1234,0,0,0,0,0,0,0,0,0,0,0,0.1257,0.1257,0.1254,0.1254,0.1245,0.1245,0.1234,0.1234,0,0,0,0,0,0,0,0,0,0,0,0.1257,0.1257,0.1256,0.1254,0.1245,0.1245,0.1234,0.1241,0,0,0,0,0,0,0,0,0,0,0.1249,0.1251,0.1257,0.1256,0.1254,0.1245,0.1245,0.1241,0.124,0.1238,0,0.1235,0,0.1234,0.1233,0.1233,0,0,0,0.1254,0.1252,0.125,0.1256,0.1254,0.1245,0.1249,0.124,0.124,0.1237,0.1235,0.1235,0.1234,0.1233,0.1233,0.1219,0.1219,0,0,0.1255,0.1255,0.125,0.1249,0.125,0.125,0.1249,0.124,0.1238,0.1235,0.1235,0.1234,0.1233,0.1233,0.1219,0.1219,0,0,0,0.1256,0.1255,0.1253,0.1249,0.1248,0.1249,0.1249,0.1239,0.1238,0.1234,0.1234,0.1233,0.1233,0.122,0.1219,0.1216,0,0,0,0.1256,0.1256,0.1254,0.1253,0.1248,0.1243,0.1248,0.1239,0.1238,0.1234,0.1233,0.1232,0.122,0.1219,0.1217,0.1215,0,0,0,0.1257,0.1256,0.1255,0.1254,0.125,0.1243,0.1242,0.1238,0.1237,0.1233,0.1232,0.122,0.1219,0.1217,0.1215,0.1212,0,0,0,0.1258,0.1251,0.1255,0.1247,0.125,0.1242,0.1242,0.1236,0.1232,0.1233,0.122,0.1219,0.1217,0.1215,0.1212,0.1208,0.1207,0,0,0.125,0.125,0.1246,0.1249,0.124,0.1243,0.1234,0.123,0.1229,0.1223,0.1222,0.1217,0.1215,0.1212,0.12,0.1199,0,0,0,0.1243,0.124,0.1238,0.1234,0.1231,0.1229,0.1226,0.1225,0.122,0.1226,0.1214,0.1214,0.1212,0.121,0.1209,0.1207,0.1219,0.1219,0.1219,0.123,0.1231,0.1224,0.1224,0.122,0.1218,0.1216,0.1214,0.1214,0.1212,0.121,0.1203,0.1201,0.12,0.1199,0.1208,0.1208,0.1208,0.1208,0.1218,0.1214,0.1216,0.121,0.1211,0.1206,0.1205,0.1206,0.1201,0.1204,0.1202,0.1205,0.1199,0.1198,0.1208,0.1208,0.1208,0.1208,0.1208,0.1209,0.1207,0.1207,0.1202,0.1199,0.1199,0.1196,0.1196,0.1197,0.1195,0.1194,0.1194,0.1194,0.1195,0.1195,0.1195,0.1195,0.1195,0.1195,0.12,0.12,0.1196,0.1194,0.1193,0.1191,0.119,0.1189,0.1188,0.1189,0.1189,0.119,0.1199,0.1201,0.1194,0.1194,0.1194,0.1194,0.1194,0.1186,0.119,0.1185,0.1184,0.1182,0.1179,0.1181,0.1179,0.1178,0.1176,0.1178,0.1185,0.1185,0.1186,0.1188,0.1178,0.1178,0.1178,0.1178,0.1179,0.118,0.1175,0.1174,0.1172,0.1173,0.1168,0.1169,0.1169,0.1169,0.1171,0.1173,0.1174,0.1174,0.1175,0.1177,0.1165,0.1165,0.1165,0.1171,0.1172,0.1167,0.1168,0.1167,0.1167,0.1162,0.1161,0.1162,0.1164,0.1169,0.117,0.1174,0.1175,0.1176,0.1177,0.118,0,0]},{"header":{"parameterUnit":"m.s-1","parameterCategory":1,"la1":30.2992,"la2":30.254,"lo1":-89.0895,"lo2":-89.0443,"dy":0.0025,"dx":0.0025,"nx":19,"ny":19,"refTime":"2026-03-16T09:00:00:Z","depth":0,"parameterNumber":3,"parameterNumberName":"V-component_of_WINDS"},"data":[0,0,0,-3.9992,-3.9994,-4.0122,-4.0122,-4.0285,-4.0287,0,0,0,0,0,0,0,0,0,0,0,-3.9956,-3.9958,-3.9991,-3.9995,-4.0122,-4.0122,-4.0285,-4.0287,0,0,0,0,0,0,0,0,0,0,0,-3.9956,-3.9957,-3.9959,-3.9995,-4.0122,-4.0123,-4.0285,-4.0188,0,0,0,0,0,0,0,0,0,0,-4.0064,-4.0035,-3.9957,-3.9959,-3.9996,-4.0122,-4.0123,-4.0183,-4.0194,-4.0229,0,-4.0262,0,-4.0277,-4.0298,-4.0299,0,0,0,-3.9992,-4.0026,-4.0058,-3.9959,-3.9997,-4.0122,-4.0064,-4.0189,-4.0202,-4.0243,-4.0264,-4.027,-4.028,-4.0299,-4.03,-4.0511,-4.0512,0,0,-3.9985,-3.998,-4.005,-4.0066,-4.0049,-4.006,-4.0068,-4.0197,-4.0219,-4.0265,-4.0274,-4.0283,-4.03,-4.0302,-4.051,-4.0511,0,0,0,-3.9967,-3.9975,-4.0004,-4.006,-4.0083,-4.0064,-4.0073,-4.0213,-4.0223,-4.0276,-4.0285,-4.0301,-4.0303,-4.0509,-4.051,-4.0559,0,0,0,-3.9962,-3.9964,-4.0001,-4.0,-4.008,-4.015,-4.0086,-4.0214,-4.0229,-4.0284,-4.0301,-4.0305,-4.0508,-4.051,-4.0555,-4.0582,0,0,0,-3.9947,-3.9963,-3.9982,-3.9999,-4.0054,-4.0148,-4.0165,-4.0217,-4.0235,-4.0299,-4.0305,-4.0507,-4.0509,-4.0552,-4.0577,-4.0635,0,0,0,-3.9929,-4.0024,-3.9983,-4.0092,-4.0053,-4.0178,-4.0165,-4.0258,-4.0319,-4.0302,-4.0508,-4.051,-4.0551,-4.0573,-4.0632,-4.0683,-4.0704,0,0,-4.0045,-4.0037,-4.0102,-4.0069,-4.0201,-4.0159,-4.0297,-4.0358,-4.0368,-4.0462,-4.0467,-4.0557,-4.0576,-4.0635,-4.0829,-4.0846,0,0,0,-4.0137,-4.0183,-4.0219,-4.0278,-4.0327,-4.0371,-4.0411,-4.0433,-4.0514,-4.0416,-4.0595,-4.0607,-4.0641,-4.0665,-4.068,-4.0709,-4.0522,-4.0522,-4.0521,-4.0293,-4.0302,-4.0409,-4.0433,-4.049,-4.053,-4.0577,-4.0613,-4.0605,-4.0647,-4.0674,-4.0791,-4.082,-4.0831,-4.0861,-4.0703,-4.0704,-4.0704,-4.0704,-4.0462,-4.0528,-4.0516,-4.0615,-4.0623,-4.0706,-4.0748,-4.0739,-4.0816,-4.0771,-4.0802,-4.0751,-4.0849,-4.0876,-4.0708,-4.0707,-4.0707,-4.0706,-4.0706,-4.0564,-4.0597,-4.0623,-4.0709,-4.0773,-4.0794,-4.0869,-4.0874,-4.0879,-4.0909,-4.0938,-4.0937,-4.0935,-4.0923,-4.0923,-4.0924,-4.0924,-4.0924,-4.0925,-4.0657,-4.0686,-4.0749,-4.081,-4.0848,-4.0898,-4.094,-4.0976,-4.1018,-4.1016,-4.1016,-4.1002,-4.0858,-4.0821,-4.0931,-4.093,-4.0929,-4.0928,-4.0928,-4.0823,-4.0786,-4.0884,-4.0922,-4.0993,-4.1055,-4.1062,-4.1136,-4.1167,-4.1203,-4.1184,-4.1077,-4.1069,-4.1057,-4.1026,-4.1183,-4.1183,-4.1183,-4.1183,-4.0907,-4.0904,-4.1004,-4.1064,-4.1124,-4.114,-4.1247,-4.128,-4.1307,-4.1327,-4.1305,-4.1265,-4.1253,-4.1252,-4.1236,-4.1207,-4.1406,-4.1406,-4.1407,-4.1008,-4.1011,-4.1102,-4.1131,-4.1186,-4.1233,-4.1334,-4.1402,-4.1426,-4.1416,-4.1341,-4.1332,-4.1267,-4.1246,-4.1232,-4.1208,-4.1155,0,0]}]]